Regional Weather Roundup
Issued by NWS

Home | Current Version | Previous Version | Graphics & Text | Print | Product List | Glossary On
Versions: 1 2 3 4 5 6 7 8 9 10 11 12 13 14 15 16 17 18 19 20 21 22 23 24 25 26 27 28 29 30 31 32 33 34 35 36 37 38 39 40 41 42 43 44 45 46 47 48 49 50
000
ASUS43 KOAX 290102
RWRNE

WEATHER ROUNDUP FOR NEBRASKA
NATIONAL WEATHER SERVICE OMAHA NE
800 PM CDT TUE JUL 28 2015

NOTES: SATELLITE DATA IS BEING USED TO AUGMENT CLOUD COVER ABOVE
       12000 FEET.
       "FAIR" INDICATES FEW OR NO CLOUDS BELOW 12,000 FEET WITH NO
       SIGNIFICANT WEATHER AND/OR OBSTRUCTIONS TO VISIBILITY.

  * THESE STATIONS DO NOT REPORT WEATHER SUCH AS RAIN...SNOW OR FOG.

NEZ001>004-019>022-054>056-290200-
NEBRASKA PANHANDLE

CITY           SKY/WX    TMP DP  RH WIND       PRES   REMARKS
SCOTTSBLUFF    SUNNY     81  30  15 CALM      30.11R
ALLIANCE       SUNNY     76  39  26 NE9       30.11R
CHADRON        SUNNY     79  36  21 N13       30.08R
KIMBALL        MOSUNNY   73  34  23 E10G17    30.17R
SIDNEY         SUNNY     79  30  16 N8        30.16R
$$

NEZ057>060-069>072-079>082-290200-
SOUTHWEST NEBRASKA

CITY           SKY/WX    TMP DP  RH WIND       PRES   REMARKS
NORTH PLATTE   SUNNY     77  49  37 NE7       30.06R
IMPERIAL       SUNNY     80  43  26 NE7       30.09S
MCCOOK         CLEAR     82  49  31 NE12      30.04R
$$

NEZ005>010-023>029-035>040-094-290200-
NORTH CENTRAL NEBRASKA

CITY           SKY/WX    TMP DP  RH WIND       PRES   REMARKS
VALENTINE      SUNNY     80  39  23 NW12      30.05R
AINSWORTH      SUNNY     79  40  25 NW9       30.05R
BROKEN BOW     CLEAR     80  55  42 N7        30.04R
O`NEILL        CLEAR     77  58  53 N3        30.01S
ORD            CLEAR     79  55  43 N5        30.00S
$$

NEZ041-046>049-061>064-073>077-083>087-290200-
SOUTH CENTRAL NEBRASKA

CITY           SKY/WX    TMP DP  RH WIND       PRES   REMARKS
GRAND ISLAND   CLEAR     78  61  55 N6        29.99S
AURORA         MOCLDY    75  62  64 N7        29.98S
HASTINGS       CLEAR     77  62  59 N6        29.99S
HEBRON         PTCLDY    78  63  59 N9        29.94R
HOLDREGE       CLEAR     75  61  60 N6        30.02R
KEARNEY *      CLEAR     79  55  44 N7        30.01R
$$

NEZ011>018-030>034-042>045-290200-
NORTHEAST NEBRASKA

CITY           SKY/WX    TMP DP  RH WIND       PRES   REMARKS
NORFOLK        CLEAR     77  60  55 NW8       29.97S
ALBION         CLEAR     78  52  41 N8        29.99S
BLAIR          MOCLDY    76  63  64 N12G18    29.92R
COLUMBUS *     CLOUDY    75  61  60 CALM      29.96S
FREMONT        PTCLDY    76  64  65 NW8       29.94R
TEKAMAH        MOCLDY    76  66  71 N8        29.93R
$$

NEZ050>053-065>068-078-088>093-290200-
SOUTHEAST NEBRASKA

CITY           SKY/WX    TMP DP  RH WIND       PRES   REMARKS
LINCOLN        CLEAR     78  63  59 N12       29.94R
OMAHA EPPLEY   MOCLDY    78  69  73 N14G23    29.90R
BEATRICE       MOCLDY    79  71  76 N14       29.90S
FALLS CITY     PTCLDY    86  78  77 S6        29.81S HX  98
NEBRASKA CITY  MOCLDY    79  70  74 N14G22    29.87S
$$

NEZ044-045-051>053-067-290200-
OMAHA AREA

CITY           SKY/WX    TMP DP  RH WIND       PRES   REMARKS
OMAHA EPPLEY   MOCLDY    78  69  73 N14G23    29.90R
BLAIR          MOCLDY    76  63  64 N12G18    29.92R
FREMONT        PTCLDY    76  64  65 NW8       29.94R
OFFUTT AFB     PTCLDY    78  69  72 N14       29.89R
WAHOO          FAIR      76  65  68 N10G16    29.93R
$$


USA.gov is the U.S. government's official web portal to all federal, state and local government web resources and services.